BLOCK DM-SL DEB, 45041

Orbit data source: Space-Track

BLOCK DM-SL DEB, 45041 is space debris in GEO originally from a launch on Tue, 24 Dec 2019 UTC launched from the Tyuratam Missile And Space Complex (TTMTR). Debris objects in space refer to the collection of defunct objects orbiting the Earth. Examples of debris include non-operational satellites, rocket bodies, and fragments generated from explosions, collisions, or faulty payload assembly.

Not visible in the next 10 days
Identifier
45041, 2019-095C
Orbit
GEO
Country
Flag of CISCIS
Related business
Manufacturer
RKKE
Mission
Spacecraft
Bus & Motor
SOZ, Unknown motor
Mass
56 kg wet, 56 kg dry
Launch date (UTC)
2019-12-24 (6 years ago)
Launch vehicle
Unknown
Launch site
Tyuratam Missile And Space Complex (TTMTR)
Object type
Payload
Rocket body
Debris
Shape & HBR
Cyl, 0.6 m
Radar Cross Section
0.660 m²

Expand to show TLE details & history
Last TLE update: 2 days ago

TLE from 2 days ago
0 BLOCK DM-SL DEB
1 45041U 19095C   25306.78029046 -.00000158  00000-0  00000-0 0  9995
2 45041   4.8069  76.3192 0322885  42.9916 319.4933  1.03008635 22002
Epoch: 2025-11-02T18:43Z
TLE epoch observation values (Epoch: 2025-11-02T18:43:37.095Z)
Latitude
-0.00001°
Longitude
113.10364°
Altitude
34,042.87 km
Speed
3.178 km/s
True Right ascension
05h 05m 11s
True Declination
0° 00' 00"
Sunlit
Object was in daylight at epoch
Visualization orbit readout
Latitude
Unknown
Longitude
Unknown
Altitude
Unknown
Speed
Unknown
Apparent Right ascension
Unknown
Apparent Declination
Unknown
Sunlit
N/A
Visualization observer readout
Local Sidereal Time
11:22:34
Azimuth
Unknown
Elevation
Unknown
Doppler factor
Unknown
Orbital elements
Apogee altitude
36,374.722 km
Perigee altitude
33,700.226 km
Semi-major axis
41,415.611 km
Eccentricity
0.03229
Inclination
4.8069°
RAAN
76.3192°
Arg. of periapsis
42.9916°
True anomaly
317.01481°
Mean anomaly
319.4933°
Eccentric anomaly
318.2617°
Mean motion
0.25751 °/min
Orbital period
1,397.99 mins
BSTAR
0
Loading maneuver chart data...
Computing Atmospheric mass density...
Loading historical data...
Loading historical data...
Loading historical data...
Loading historical data...
Loading historical data...
Loading historical data...
Loading historical data...
Other satellites on launch #95 in the year 2019 (2019-12-24 UTC)

Documentation

Showing up to 5 results
|